YAOGAN 8

导读

YAOGAN 8即遥感八号卫星,是中国自主研制的遥感卫星,于北京时间2009年12月15日,在太原卫星发射中心由长征四号丙运载火箭以一箭双星方式发射升空,同时搭载发射了公益小卫星希望一号。该卫星主要用于空间科学试验、国土资源勘查、农作物估产及防灾减灾等领域,将服务中国国民经济发展,目前卫星仍处于在轨运行状态。

Basic Information
目录编号:
36121
目录名称:
YAOGAN 8
国际标识:
2009-072A
轨道中心:
EARTH
卫星名称:
YAOGAN 8
卫星全名:
--
卫星状态:
在轨 (已飞行6023 天)
发射日期:
2009-12-15 UTC
国别 :
中国 (CN)
星等 :
--
Orbit Information
数据来源 国际轨道数据 AOE轨道数据
星历时间 2026-06-12T14:47:10+0800
14小时前
查看轨道信息
2026-06-11T03:00:00+0800
2天前
查看轨道信息
半长轴 7620.384km 7620.4km
偏心率 0.0020846 0.002072
轨道倾角 100.218° 100.219°
近地点辐角 337.280° 340.409°
升交点赤经 48.053° 46.642°
平近点角 22.738° 217.414°
近地点 1226.361km 1226.473km
远地点 1258.133km 1258.053km
周期 110.338分钟 110.338分钟
每日圈数 13.050812 13.050771
Detailed Information
使用方式:
暂无
2D Orbit Map
3D Orbit Map
Orbit Altitude Analysis Chart
Orbit Inclination Analysis Chart
Orbit Comprehensive Analysis Chart
View Comprehensive Chart